Date,TemperatureHighF,TemperatureAvgF,TemperatureLowF,DewpointHighF,DewpointAvgF,DewpointLowF,HumidityHigh,HumidityAvg,HumidityLow,PressureMaxIn,PressureMinIn,WindSpeedMaxMPH,WindSpeedAvgMPH,GustSpeedMaxMPH,PrecipitationSumIn
2013-1-8,40.1,36.7,32.0,33.3,32.8,29.4,88,83,70,34.97,26.77,23,9,23,1.20
2013-1-9,42.8,40.6,32.0,33.3,28.0,26.3,88,56,54,30.88,0.00,8,5,8,0.01
2013-1-10,52.9,51.0,44.2,37.3,34.0,31.1,64,52,48,35.03,26.79,8,4,8,0.00
2013-1-11,58.8,57.6,50.7,55.3,53.1,37.3,92,85,56,35.31,26.63,9,4,9,0.04
2013-1-15,32.0,32.0,32.0,54.5,54.5,54.5,0,0,100,0.00,0.00,0,0,0,0.04
2013-1-16,32.0,32.0,32.0,54.5,54.5,54.5,0,0,100,0.00,0.00,0,0,0,0.04
2013-1-17,32.0,32.0,32.0,54.5,54.5,54.5,0,0,100,0.00,0.00,0,0,0,0.04
2013-1-22,32.0,32.0,32.0,54.5,54.5,54.5,0,0,100,0.00,40.00,0,0,0,0.00
2013-1-25,32.0,32.0,32.0,54.5,54.5,54.5,0,0,100,0.00,40.00,0,0,0,0.00
2013-1-26,32.0,32.0,32.0,54.5,54.5,54.5,0,0,100,0.00,0.00,0,0,0,0.04
2013-1-27,32.0,32.0,32.0,54.5,54.5,54.5,0,0,100,0.00,40.00,0,0,0,0.00
2013-1-29,51.4,51.1,50.9,42.6,42.4,42.0,72,72,72,29.87,26.86,11,6,11,1.19
2013-1-30,51.1,34.3,32.0,42.4,42.4,42.4,72,9,72,26.86,0.00,6,1,11,1.19
2013-1-31,32.0,32.0,32.0,42.4,42.4,42.4,0,0,100,0.00,0.00,0,0,0,1.19
2013-2-1,56.8,56.5,56.3,33.4,33.0,32.3,41,41,40,29.96,28.41,8,4,8,1.19
2013-2-2,55.2,54.8,32.0,49.5,49.2,33.4,81,80,80,34.83,0.00,4,4,4,0.00
2013-2-3,55.2,55.2,55.2,49.5,49.5,49.5,81,81,81,27.20,27.20,4,4,4,0.00
2013-2-4,32.0,32.0,32.0,49.5,49.5,49.5,0,0,100,0.00,40.00,0,0,0,0.00
2013-2-6,32.0,32.0,32.0,49.5,49.5,49.5,0,0,100,0.00,40.00,0,0,0,0.00
2013-2-7,32.0,32.0,32.0,49.5,49.5,49.5,0,0,100,0.00,0.00,0,0,0,0.00
2013-2-8,32.0,32.0,32.0,49.5,49.5,49.5,0,0,100,0.00,0.00,0,0,0,0.00
2013-2-10,55.9,54.7,54.5,42.9,42.3,41.5,64,63,62,33.60,26.72,8,7,8,1.52
2013-2-11,54.7,52.5,50.4,42.3,39.2,36.3,68,60,55,33.97,26.72,22,18,22,0.00
2013-2-12,32.0,32.0,32.0,39.0,39.0,39.0,0,0,100,0.00,0.00,0,0,0,0.00
2013-2-13,32.0,32.0,32.0,39.0,39.0,39.0,0,0,100,0.00,0.00,0,0,0,0.00
2013-2-14,32.0,32.0,32.0,39.0,39.0,39.0,0,0,100,0.00,40.00,0,0,0,0.00
2013-2-16,55.8,54.0,53.8,47.1,45.0,44.3,75,72,71,30.62,26.71,6,2,6,0.00
2013-2-17,53.8,53.8,53.8,44.6,44.6,44.6,71,71,71,26.88,26.88,2,2,4,0.00
2013-2-18,51.1,46.1,45.5,40.4,40.4,39.8,81,80,66,27.68,26.65,14,4,14,0.25
2013-2-19,32.0,32.0,32.0,40.3,40.3,40.3,0,0,100,0.00,0.00,0,0,0,0.25
2013-2-20,32.0,32.0,32.0,40.3,40.3,40.3,0,0,100,0.00,40.00,0,0,0,0.00
2013-2-21,56.3,56.3,55.8,45.9,45.9,45.4,68,68,68,27.39,26.87,2,2,2,0.25
2013-2-22,56.3,34.4,32.0,45.9,45.9,45.9,68,7,68,26.87,26.87,2,0,2,0.25
2013-2-23,60.4,60.3,59.9,51.2,51.2,50.3,72,72,71,30.05,26.68,2,0,2,1.06
2013-2-24,60.3,32.5,32.0,51.3,51.3,51.2,72,1,72,26.68,0.00,0,0,1,1.06
2013-3-5,54.9,54.5,54.3,43.2,42.5,41.7,66,64,62,27.70,26.93,17,11,17,1.06
2013-3-7,32.0,32.0,32.0,41.9,41.9,41.9,0,0,100,0.00,40.00,0,0,0,0.00
2013-3-8,58.6,44.3,32.0,55.2,48.1,41.9,89,41,89,27.76,0.00,5,2,5,1.06
2013-3-11,32.0,32.0,32.0,55.2,55.2,55.2,0,0,100,0.00,40.00,0,0,0,1.06
2013-3-12,32.0,32.0,32.0,55.2,55.2,55.2,0,0,100,0.00,40.00,0,0,0,0.00
2013-3-13,32.0,32.0,32.0,55.2,55.2,55.2,0,0,100,0.00,40.00,0,0,0,1.06
2013-3-14,32.0,32.0,32.0,55.2,55.2,55.2,0,0,100,0.00,0.00,0,0,0,1.06
2013-3-15,32.0,32.0,32.0,55.2,55.2,55.2,0,0,100,0.00,0.00,0,0,0,1.06
2013-3-20,32.0,32.0,32.0,55.2,55.2,55.2,0,0,100,0.00,40.00,0,0,0,0.00
2013-3-22,32.0,32.0,32.0,55.2,55.2,55.2,0,0,100,0.00,0.00,0,0,0,1.06
2013-3-23,32.0,32.0,32.0,55.2,55.2,55.2,0,0,100,0.00,0.00,0,0,0,1.06
2013-3-26,32.0,32.0,32.0,55.2,55.2,55.2,0,0,100,0.00,0.00,0,0,0,1.06
2013-3-27,32.0,32.0,32.0,55.2,55.2,55.2,0,0,100,0.00,40.00,0,0,0,0.00
2013-3-31,68.5,67.6,67.3,59.2,58.8,57.9,74,73,71,35.27,34.38,15,12,15,1.06
2013-4-1,72.5,63.7,32.0,58.4,48.1,40.1,89,45,32,35.31,0.00,28,7,28,0.00
2013-4-2,69.3,65.2,61.9,54.8,51.6,47.6,67,62,47,34.60,28.19,17,7,17,0.02
2013-4-3,68.9,66.1,59.7,56.8,49.3,43.7,73,56,43,33.45,26.65,31,14,31,0.02
2013-4-4,60.1,59.7,59.4,49.9,49.2,48.5,70,68,66,30.28,29.39,28,14,28,0.00
2013-4-6,70.7,69.4,68.7,53.1,51.2,48.9,56,52,49,35.38,26.60,5,2,5,0.09
2013-4-10,66.9,66.0,65.5,54.4,53.0,50.5,66,63,59,34.93,33.39,16,11,16,0.12
2013-4-13,67.8,41.1,32.0,54.3,50.8,49.6,64,15,55,35.25,26.65,6,1,6,0.05
2013-4-14,72.7,70.2,66.6,55.6,53.5,52.0,64,56,51,35.12,26.64,4,3,5,0.01
2013-4-15,65.7,62.4,58.5,47.7,44.9,40.0,64,53,42,34.99,28.69,27,13,27,0.01
2013-4-16,61.2,61.1,60.6,43.9,43.8,43.1,53,53,52,34.95,34.70,18,13,18,0.04
2013-4-17,77.5,62.6,32.0,43.9,32.4,29.2,37,31,25,34.90,28.85,30,8,30,0.07
2013-4-18,65.5,62.4,59.2,34.7,31.0,27.7,39,31,26,34.99,28.85,35,15,35,0.02
2013-4-23,72.9,70.7,68.5,53.2,50.8,49.6,58,50,47,28.65,27.09,11,7,11,0.02
2013-4-26,72.9,48.1,32.0,53.2,50.0,44.5,38,15,38,31.83,28.23,3,1,3,0.00
2013-5-8,69.8,68.5,67.8,58.2,57.4,56.4,69,68,66,34.97,28.78,11,4,11,0.05
2013-5-9,72.9,68.7,32.0,60.3,57.0,55.4,71,63,59,35.22,26.63,25,11,25,0.00
2013-5-10,66.9,44.1,32.0,56.3,55.6,55.3,70,24,68,29.80,0.00,13,2,13,0.00
2013-5-11,76.3,72.2,32.0,59.6,57.3,55.3,62,58,53,34.21,0.00,21,12,21,0.08
2013-5-12,77.7,74.5,70.5,62.0,59.9,57.2,68,60,52,34.61,26.59,22,9,22,0.00
2013-5-13,32.0,32.0,32.0,59.5,59.5,59.5,0,0,100,0.00,0.00,0,0,0,0.00
2013-5-14,32.0,32.0,32.0,59.5,59.5,59.5,0,0,100,0.00,0.00,0,0,0,0.00
2013-5-15,76.3,75.5,75.4,55.8,54.6,54.4,50,48,48,27.50,26.62,18,16,18,0.13
2013-5-16,32.0,32.0,32.0,54.3,54.3,54.3,0,0,100,0.00,40.00,0,0,0,0.13
2013-5-18,78.8,72.2,32.0,62.8,61.4,54.3,59,50,58,34.78,30.50,4,2,4,0.13
2013-5-27,72.0,71.9,69.4,46.7,45.0,44.0,42,38,37,34.89,26.69,8,5,8,0.01
2013-5-28,74.3,72.1,70.7,63.5,61.1,49.3,76,69,44,34.99,26.58,15,6,15,0.00
2013-5-29,75.4,35.6,32.0,52.6,51.6,49.8,45,4,41,34.95,0.00,10,0,12,0.00
2013-5-30,32.0,32.0,32.0,51.6,51.6,51.6,0,0,100,0.00,0.00,0,0,0,0.00
2013-5-31,32.0,32.0,32.0,51.6,51.6,51.6,0,0,100,0.00,40.00,0,0,0,0.00
2013-6-1,68.7,68.3,68.0,59.0,58.6,57.9,72,71,70,31.23,28.22,4,2,4,0.00
2013-6-2,71.6,70.9,68.4,59.3,56.1,52.6,71,60,54,34.88,26.59,19,10,19,0.05
2013-6-3,69.4,68.8,68.5,55.0,54.7,54.2,61,61,59,31.77,31.03,9,7,13,0.00
2013-6-5,74.1,73.6,73.2,56.9,56.9,55.9,56,56,55,34.92,33.28,12,11,12,0.07
2013-6-9,32.0,32.0,32.0,57.0,57.0,57.0,0,0,100,0.00,0.00,0,0,0,0.07
2013-6-10,32.0,32.0,32.0,57.0,57.0,57.0,0,0,100,0.00,0.00,0,0,0,0.07
2013-6-11,32.0,32.0,32.0,57.0,57.0,57.0,0,0,100,0.00,0.00,0,0,0,0.07
2013-6-12,32.0,32.0,32.0,57.0,57.0,57.0,0,0,100,0.00,0.00,0,0,0,0.07
2013-6-13,69.8,36.1,32.0,61.6,57.5,57.0,76,8,75,34.88,0.00,10,1,10,0.07
2013-6-14,69.1,69.1,69.1,61.2,61.2,61.2,76,76,76,35.38,35.38,9,9,10,0.07
2013-6-16,32.0,32.0,32.0,61.2,61.2,61.2,0,0,100,0.00,40.00,0,0,0,0.00
2013-6-17,85.3,72.3,32.0,61.2,58.1,56.2,41,31,38,27.79,0.00,11,3,11,0.07
2013-6-18,91.2,76.2,32.0,63.8,59.5,56.3,49,32,35,34.92,0.00,30,11,30,0.01
2013-6-19,84.4,83.9,83.3,63.2,62.4,60.9,49,48,47,35.25,34.88,16,11,17,0.00
2013-6-20,32.0,32.0,32.0,60.8,60.8,60.8,0,0,100,0.00,40.00,0,0,0,0.00
2013-6-25,32.0,32.0,32.0,60.8,60.8,60.8,0,0,100,0.00,40.00,0,0,0,0.00
2013-6-26,88.9,64.6,32.0,73.0,65.9,60.8,72,38,42,34.80,0.00,13,4,13,0.15
2013-6-27,82.0,60.0,32.0,70.4,68.2,66.0,72,39,60,34.08,26.65,8,3,8,0.00
2013-6-29,82.8,52.4,32.0,66.6,66.2,64.7,58,23,56,34.80,0.00,15,5,15,0.00
2013-7-7,87.6,71.8,32.0,65.7,63.7,60.1,47,33,44,34.91,0.00,24,9,24,0.00
2013-7-8,92.3,66.7,32.0,60.7,60.1,58.3,47,23,33,34.99,0.00,24,6,24,0.00
2013-7-9,91.8,54.2,32.0,62.6,60.2,58.8,44,16,37,34.83,0.00,18,3,18,0.00
2013-7-10,84.2,83.1,82.0,64.0,63.2,62.3,52,51,51,35.29,26.59,14,7,14,0.00
2013-7-11,90.0,86.4,80.8,68.0,62.7,61.0,64,46,38,34.97,26.86,11,6,11,0.00
2013-7-12,91.6,84.2,81.3,70.4,65.3,51.0,66,54,31,34.99,26.61,11,4,11,0.00
2013-7-13,88.7,86.6,83.8,64.0,63.1,62.0,48,45,44,34.85,27.02,12,8,12,0.00
2013-7-23,82.2,64.8,32.0,63.5,54.1,49.0,34,22,33,27.37,0.00,14,6,14,0.00
2013-7-24,94.3,90.2,85.1,53.1,52.2,51.0,33,28,24,34.85,26.69,14,7,14,0.00
2013-7-25,88.3,84.4,32.0,54.3,53.4,52.8,33,30,31,35.22,0.00,7,4,7,0.00
2013-8-8,86.0,85.6,84.9,59.1,59.0,57.8,41,41,40,34.64,27.06,16,9,16,0.13
2013-8-9,84.6,84.6,83.7,62.3,62.2,61.7,48,47,47,34.77,33.53,19,15,19,0.00
2013-8-11,90.3,89.6,89.2,54.7,53.3,53.0,30,29,29,34.88,28.56,22,14,22,0.00
2013-8-12,32.0,32.0,32.0,53.2,53.2,53.2,0,0,100,0.00,40.00,0,0,0,0.00
2013-8-23,88.3,66.7,32.0,54.5,53.1,52.1,33,21,31,34.92,0.00,17,9,17,0.04
2013-8-24,85.5,79.7,32.0,61.1,57.1,53.1,49,41,33,35.40,0.00,16,6,16,0.04
2013-8-25,82.0,55.6,32.0,62.8,58.6,55.7,53,24,41,34.83,0.00,4,1,6,0.00
2013-8-26,90.5,84.6,81.5,69.8,68.6,61.4,62,59,39,35.32,27.81,11,6,11,0.00
2013-8-27,88.0,81.3,32.0,61.5,60.0,57.3,42,37,37,29.94,0.00,10,3,10,0.00
2013-8-28,89.8,73.1,32.0,67.3,64.1,60.3,54,34,43,34.99,0.00,9,4,9,0.00
2013-8-29,87.1,86.2,84.0,69.6,68.8,66.5,57,56,56,34.88,26.79,17,8,17,0.00
2013-8-30,89.6,89.0,85.3,67.6,61.6,60.2,54,40,38,34.95,26.62,13,3,13,0.00
2013-8-31,83.3,80.7,79.0,60.7,58.6,54.9,50,47,43,33.60,26.67,23,11,23,0.00
2013-9-1,81.3,48.9,32.0,55.2,53.0,48.2,44,13,33,34.97,0.00,16,3,16,0.00
2013-9-2,88.0,83.0,78.6,62.9,56.7,48.0,54,41,27,34.91,26.77,19,6,19,0.00
2013-9-3,87.4,81.7,78.4,68.3,64.9,60.1,67,57,44,34.11,26.58,19,9,19,0.00
2013-9-4,79.2,78.6,78.1,66.5,64.5,62.8,66,62,58,31.98,29.47,4,2,5,0.00
2013-9-6,32.0,32.0,32.0,64.4,64.4,64.4,0,0,100,0.00,0.00,0,0,0,0.00
2013-9-7,32.0,32.0,32.0,64.4,64.4,64.4,0,0,100,0.00,0.00,0,0,0,0.00
2013-9-8,87.1,83.3,78.8,62.6,57.0,17.7,44,41,10,32.31,26.61,24,12,24,0.00
2013-9-9,81.7,80.5,79.5,55.9,55.2,54.1,43,42,40,34.83,26.95,21,13,24,0.00
2013-9-12,86.5,83.2,80.8,71.1,64.5,62.0,62,53,49,34.96,29.73,10,3,10,0.00
2013-9-13,86.4,64.1,32.0,72.6,68.4,66.6,68,39,55,35.34,0.00,13,3,13,0.00
2013-9-14,32.0,32.0,32.0,72.5,72.5,72.5,0,0,100,0.00,0.00,0,0,0,0.00
2013-9-15,80.6,74.5,32.0,72.5,44.5,39.1,24,21,24,34.77,0.00,14,7,14,0.00
2013-9-16,76.8,76.2,74.3,64.1,63.7,62.8,68,65,65,34.94,28.94,11,2,11,0.00
2013-9-17,77.9,77.5,77.2,61.5,61.1,60.8,57,57,57,31.54,30.31,21,12,21,0.00
2013-9-18,77.9,76.9,76.3,62.9,62.0,60.6,62,60,57,31.81,29.68,21,11,21,0.00
2013-9-20,76.8,54.9,32.0,65.5,63.6,62.6,68,35,67,34.80,0.00,2,1,2,0.00
2013-9-21,76.3,45.6,32.0,64.6,64.6,64.6,67,21,67,35.29,34.68,2,1,2,0.00
2013-9-25,78.3,78.1,76.3,62.3,62.1,60.9,59,58,58,34.94,30.14,7,5,7,0.00
2013-9-26,75.4,74.9,70.7,67.6,64.3,63.7,84,70,67,34.92,26.59,4,3,4,0.00
2013-9-27,84.0,78.5,74.7,66.4,62.7,55.7,69,59,40,35.42,29.69,16,6,16,0.00
2013-9-28,81.5,77.1,32.0,68.0,64.5,61.5,73,62,55,35.36,29.70,14,6,14,0.00
2013-9-29,81.9,76.6,32.0,67.7,65.6,61.3,76,64,53,34.93,29.68,15,5,15,0.00
2013-9-30,75.2,35.9,32.0,63.5,63.5,63.5,67,6,67,35.43,0.00,0,0,0,0.00
2013-10-1,77.9,46.6,32.0,69.3,67.3,63.5,80,25,70,34.99,0.00,12,2,12,0.19
2013-10-2,73.9,45.7,32.0,67.8,57.9,56.1,80,24,57,34.99,0.00,12,2,12,0.22
2013-10-3,64.8,62.0,32.0,57.6,53.3,52.3,80,61,64,27.87,0.00,11,10,11,0.09
2013-10-4,64.8,42.4,32.0,52.3,52.3,52.3,64,20,64,26.60,26.60,11,4,11,0.09
2013-10-9,69.6,65.6,62.2,54.8,52.6,51.0,68,63,55,34.71,27.62,4,2,4,0.09
2013-10-13,74.8,69.8,32.0,62.8,60.9,52.7,68,61,66,30.01,26.59,4,2,4,0.09
2013-10-14,72.7,72.1,71.6,61.5,61.0,60.3,68,68,67,30.14,28.86,4,2,4,0.00
2013-10-15,73.9,71.9,69.8,67.8,65.4,60.8,84,80,72,34.89,26.70,4,1,4,0.00
2013-10-16,73.0,34.1,32.0,67.3,66.7,66.0,82,4,81,31.11,0.00,11,0,11,0.00
2013-10-17,70.7,54.8,32.0,66.7,56.2,49.0,62,42,48,32.70,0.00,41,11,41,0.18
2013-10-18,64.8,49.2,32.0,51.5,51.5,51.4,62,32,62,27.11,27.11,16,8,24,0.18
2013-10-19,71.6,71.0,70.9,49.2,48.6,48.5,45,45,45,34.55,32.63,14,9,14,0.18
2013-10-22,68.7,68.0,67.5,57.9,57.2,56.4,70,68,68,34.78,29.70,5,4,5,0.00
2013-10-23,80.1,75.4,66.6,58.9,56.3,51.7,74,52,44,34.99,26.73,19,6,19,0.00
2013-10-24,75.6,70.4,32.0,57.0,53.4,52.4,48,41,46,28.28,0.00,20,16,20,0.00
2013-10-26,75.4,70.4,32.0,50.0,46.4,45.8,45,35,36,33.72,26.73,15,4,15,0.00
2013-10-27,74.7,56.6,32.0,50.4,47.7,42.3,44,25,33,34.94,0.00,10,3,10,0.00
2013-10-28,72.5,68.3,65.1,61.4,59.3,55.9,79,73,59,34.88,31.57,9,4,9,0.00
2013-10-29,66.6,66.4,64.4,58.8,58.7,57.1,77,76,76,35.39,35.39,4,3,4,0.00
2013-10-31,32.0,32.0,32.0,57.0,57.0,57.0,0,0,100,0.00,0.00,0,0,0,0.00
2013-11-1,32.0,32.0,32.0,57.0,57.0,57.0,0,0,100,0.00,0.00,0,0,0,0.00
2013-11-3,32.0,32.0,32.0,57.0,57.0,57.0,0,0,100,0.00,0.00,0,0,0,0.00
2013-11-4,70.3,44.6,32.0,63.4,58.8,57.0,82,28,77,34.70,0.00,10,1,10,0.01
2013-11-5,67.5,35.9,32.0,62.1,60.3,60.0,83,9,80,34.96,33.94,5,0,5,0.00
2013-11-6,32.0,32.0,32.0,60.1,60.1,60.1,0,0,100,0.00,0.00,0,0,0,0.00
2013-11-7,64.2,32.6,32.0,59.5,59.4,58.9,85,2,85,30.79,0.00,6,0,6,0.73
2013-11-8,70.5,55.2,32.0,59.4,52.7,48.5,55,34,50,33.50,0.00,8,3,8,0.73
2013-11-9,32.0,32.0,32.0,52.0,52.0,52.0,0,0,100,0.00,0.00,0,0,0,0.73
2013-11-10,32.0,32.0,32.0,52.0,52.0,52.0,0,0,100,0.00,0.00,0,0,0,0.73
2013-11-11,32.0,32.0,32.0,52.0,52.0,52.0,0,0,100,0.00,0.00,0,0,0,0.73
2013-11-12,32.0,32.0,32.0,52.0,52.0,52.0,0,0,100,0.00,0.00,0,0,0,0.73
2013-11-13,65.1,33.1,32.0,54.7,54.2,52.0,69,2,69,30.85,0.00,3,0,3,0.73
2013-11-14,32.0,32.0,32.0,54.7,54.7,54.7,0,0,100,0.00,0.00,0,0,0,0.73
2013-11-15,60.1,36.4,32.0,54.7,54.5,53.0,81,13,80,34.76,0.00,17,2,17,0.73
2013-11-16,62.1,60.6,57.9,52.2,50.7,47.6,71,70,68,35.04,26.69,27,13,27,0.00
2013-11-17,62.4,57.0,32.0,48.6,46.2,43.9,70,58,55,34.90,0.00,18,6,18,0.00
2013-11-18,57.7,37.3,32.0,47.9,45.8,45.3,70,15,70,34.90,0.00,11,1,11,0.00
2013-11-19,57.6,57.5,55.8,50.1,49.8,47.5,77,75,70,35.42,29.70,6,3,11,0.00
2013-11-20,62.6,61.4,57.6,62.0,60.6,50.1,99,97,76,35.40,32.01,9,4,9,0.30
2013-11-21,61.7,61.7,61.7,61.4,61.4,61.4,99,99,99,35.22,35.22,4,4,6,0.30
2013-11-22,63.3,63.1,63.1,56.7,56.5,56.5,79,79,79,34.87,33.45,8,4,8,0.30
2013-11-23,66.6,56.8,32.0,58.3,54.9,51.5,85,52,63,34.90,0.00,19,5,19,0.30
2013-11-24,65.8,55.6,32.0,60.3,55.2,51.5,87,60,63,34.97,0.00,24,5,24,0.45
2013-11-25,67.5,62.2,59.9,54.5,52.2,50.4,75,70,60,35.35,29.38,16,4,16,0.00
2013-11-26,60.3,60.1,60.1,51.2,51.0,51.0,72,72,72,0.00,40.00,3,2,3,0.00
2013-11-27,55.2,32.9,32.0,51.1,50.8,42.8,67,3,65,0.00,0.00,2,0,2,0.02
2013-11-28,60.3,56.3,52.2,44.4,40.0,37.7,70,55,45,34.97,29.70,13,6,13,0.00
2013-11-29,54.3,54.3,54.3,39.4,39.4,39.4,57,57,57,34.84,34.84,4,4,8,0.00
2013-11-30,59.9,53.3,32.0,50.5,47.4,39.4,74,57,68,34.93,29.76,15,4,15,0.00
2013-12-1,58.8,58.8,58.8,48.7,48.7,48.7,69,69,69,0.00,40.00,7,7,15,0.00
2013-12-3,71.1,48.8,46.8,40.7,39.0,37.8,76,69,65,34.96,29.73,43,21,43,4.98
2013-12-7,56.8,56.5,56.1,46.8,45.7,45.5,70,67,67,31.24,26.70,14,11,14,0.14
2013-12-8,32.0,32.0,32.0,45.7,45.7,45.7,0,0,100,0.00,0.00,0,0,0,0.14
2013-12-9,32.0,32.0,32.0,45.7,45.7,45.7,0,0,100,0.00,0.00,0,0,0,0.14
2013-12-10,48.0,47.3,46.8,40.1,38.1,32.1,76,70,57,34.91,29.86,30,16,30,0.14
2013-12-11,47.1,43.6,32.0,32.5,26.4,25.1,57,50,49,34.75,0.00,32,29,32,0.12
2013-12-12,51.8,49.3,43.3,29.1,26.5,20.4,50,41,31,34.16,26.67,32,6,32,0.24
2013-12-13,32.0,32.0,32.0,28.9,28.9,28.9,0,0,100,0.00,0.00,0,0,0,0.24
2013-12-14,32.0,32.0,32.0,28.9,28.9,28.9,0,0,100,0.00,0.00,0,0,0,0.24
2013-12-16,32.0,32.0,32.0,28.9,28.9,28.9,0,0,100,0.00,0.00,0,0,0,0.24
2013-12-17,32.0,32.0,32.0,28.9,28.9,28.9,0,0,100,0.00,0.00,0,0,0,0.24
2013-12-18,50.4,43.0,32.0,41.3,36.2,28.9,71,44,71,27.15,26.62,10,5,11,0.24
2013-12-19,53.2,48.1,32.0,41.8,41.2,40.8,71,52,65,27.04,0.00,10,6,10,0.24
2013-12-20,54.9,50.7,32.0,41.4,38.1,36.8,65,44,51,34.83,0.00,8,4,8,0.00
2013-12-22,32.0,32.0,32.0,36.7,36.7,36.7,0,0,100,0.00,40.00,0,0,0,0.00
2013-12-23,56.1,51.5,32.0,42.5,41.2,36.7,61,51,55,28.99,0.00,8,6,8,0.01
2013-12-24,55.4,55.4,55.4,42.2,42.2,42.2,61,61,61,26.59,26.59,7,7,7,0.01
2013-12-27,32.0,32.0,32.0,42.3,42.3,42.3,0,0,100,0.00,0.00,0,0,0,0.01
2013-12-28,32.0,32.0,32.0,42.3,42.3,42.3,0,0,100,0.00,0.00,0,0,0,0.01
2013-12-29,32.0,32.0,32.0,42.3,42.3,42.3,0,0,100,0.00,0.00,0,0,0,0.01
2014-1-2,32.0,32.0,32.0,42.3,42.3,42.3,0,0,100,0.00,0.00,0,0,0,0.01